Regional Weather Roundup
Issued by NWS

Home | Current Version | Previous Version | Graphics & Text | Print | Product List | Glossary Off
Versions: 1 2 3 4 5 6 7 8 9 10 11 12 13 14 15 16 17 18 19 20 21 22 23 24 25 26 27 28 29 30 31 32 33 34 35 36 37 38 39 40 41 42 43 44 45 46 47 48 49

000
ASUS45 KTFX 302010
RWRMT
MONTANA REGIONAL WEATHER ROUNDUP
NATIONAL WEATHER SERVICE GREAT FALLS MT
200 PM MDT TUE JUN 30 2015

NOTE: "FAIR" INDICATES FEW OR NO CLOUDS BELOW 12000 FEET WITH NO
SIGNIFICANT WEATHER AND/OR OBSTRUCTIONS TO VISIBILITY.

MTZ001>007-043-302100-
WEST OF THE DIVIDE

CITY           SKY/WX    TMP DP  RH WIND       PRES   REMARKS
KALISPELL      CLEAR     90  43  19 W13       30.00F
MISSOULA       MOSUNNY   91  51  25 NW12      30.02F
BUTTE          MOSUNNY   83  44  25 W7G20     30.16F
MULLAN PASS    SUNNY     73  45  36 NW10G21   30.25S
DEER LODGE       N/A     82  54  36 N3        30.14F
EUREKA           N/A     81  61  50 W5        30.03F
HAMILTON         N/A     88  52  29 N9        30.03F
PLAINS           N/A     89  51  27 W10       30.00S
RONAN            N/A     91  43  18 W12       30.07S
THOMPSON FALLS   N/A     91  43  18 NW10      30.03F
$$

MTZ008-052>055-302100-
SOUTHWEST MONTANA

CITY           SKY/WX    TMP DP  RH WIND       PRES   REMARKS
BOZEMAN        SUNNY     88  47  24 SW7       30.07F
DILLON         SUNNY     88  50  27 NW6       30.11F
W YELLOWSTONE  PTSUNNY   82  46  28 W12G18    30.23F
THREE FORKS      N/A     90  51  26 NW9       30.04F
$$

MTZ009-010-012-014-046-048-049-054-302100-
EAST SLOPES AND CENTRAL MONTANA

CITY           SKY/WX    TMP DP  RH WIND       PRES   REMARKS
CUT BANK       SUNNY     86  47  25 NW21G31   30.00S
GREAT FALLS    SUNNY     90  40  17 NW16G24   29.98F
MALMSTROM AFB  MOSUNNY   90  36  14 W21G26    29.98S
HELENA         PTSUNNY   88  49  25 NW18      30.02F
CONRAD           N/A     87  50  27 W13       30.02S
$$

MTZ011-013-016-021-045-047-050-051-302100-
NORTH CENTRAL MONTANA

CITY           SKY/WX    TMP DP  RH WIND       PRES   REMARKS
HAVRE          MOSUNNY   91  53  27 NW24G36   29.88R
LEWISTOWN      MOSUNNY   88  45  22 NW18G29   30.00F
CHINOOK          N/A     90  54  29 W22G32    29.85S
FORT BENTON      N/A     93  39  15 W17G33    29.92S
$$

MTZ017>020-022>027-061-062-302100-
NORTHEAST MONTANA

CITY           SKY/WX    TMP DP  RH WIND       PRES   REMARKS
JORDAN           N/A     86  57  37 N21G29    29.86S
SIDNEY         SUNNY     84  63  48 SE10      29.85F
WOLF POINT     SUNNY     88  61  40 E16G25    29.82F HAZE
MALTA            N/A     92  50  23 W12       29.81F
PLENTYWOOD       N/A     72  59  64 E16       29.90F
POPLAR           N/A     82  64  54 NE17        N/A
SCOBEY           N/A     79  52  38 E20       29.88F
$$

MTZ028>42-056>058-302100-
SOUTHCENTRAL AND SOUTHEAST MONTANA

CITY           SKY/WX    TMP DP  RH WIND       PRES   REMARKS
BAKER          PTSUNNY   82  67  60 VRB6      29.89F
BILLINGS       MOSUNNY   95  41  15 N22G31    29.96F HX  91
LIVINGSTON     SUNNY     90  46  21 W17       30.06F
MILES CITY     MOSUNNY   95  55  26 NW21G26   29.84F HX  93
EKALAKA          N/A     83  58  42 NW5       29.92F
FORSYTH          N/A     91  55  29 SW8G18    29.86F
LAUREL           N/A     93  51  23 W9        29.96F HX  90
ROUNDUP          N/A     93  45  19 W23       29.86F
$$

REGIONAL REPORTS...DAKOTAS

CITY           SKY/WX    TMP DP  RH WIND       PRES   REMARKS
WILLISTON      PTSUNNY   79  55  43 E15       29.89F HAZE
MINOT          CLOUDY    69  65  86 N8        29.92R FOG
DICKINSON      PTSUNNY   77  63  61 SE17      29.89F
BEACH          FAIR      81  64  57 SE18      29.88F
CROSBY         CLOUDY    63  63 100 NE6       29.94R THUNDER FOG
BISMARCK       CLOUDY    75  60  59 S6        29.90F
GRAND FORKS    CLOUDY    75  56  51 SE7       29.91F
FARGO          CLOUDY    73  58  59 E6        29.91F
BUFFALO SD       N/A     80  66  62 SE9       29.85F
RAPID CITY     PTSUNNY   85  66  53 VRB3      29.90F
$$

REGIONAL REPORTS...WYOMING/IDAHO/WASHINGTON

CITY           SKY/WX    TMP DP  RH WIND       PRES   REMARKS
GILLETTE       CLOUDY    84  58  40 NW10G21   30.02F
SHERIDAN       MOSUNNY   90  56  31 NW20G26   29.99F
BUFFALO WY     LGT RAIN  79  55  43 N7        30.08F
CODY           MOSUNNY   73  55  53 NW5       30.09F
YELLOWSTONE LA   N/A     76  40  27 W9G22     30.34F
IDAHO FALLS    MOSUNNY   84  64  50 W7        30.12F
SALMON         SUNNY     86  52  30 N3        30.03F
BOISE          SUNNY     96  55  25 NW8G16    29.98F HX  94
SPOKANE        MOSUNNY   90  47  22 NW6       30.04S
$$

REGIONAL REPORTS...ALBERTA

CITY           SKY/WX    TMP DP  RH WIND       PRES   REMARKS
EDMONTON       CLOUDY    66  55  68 S6        30.00S
CALGARY        MOSUNNY   75  57  53 N13G23    30.03S
LETHBRIDGE     MOSUNNY   79  59  50 NW16G22   29.99S
MEDICINE HAT   SUNNY     81  54  39 NW16G22   29.90S
WATERTON GATE    N/A     81  52  36 NE6G17      N/A
CARDSTON         N/A     79  54  41 N9          N/A
MILK RIVER       N/A     82  50  32 NW20G28     N/A
ONEFOUR          N/A     81  54  39 NW26G36     N/A
$$

REGIONAL REPORTS...SASKATCHEWAN

CITY           SKY/WX    TMP DP  RH WIND       PRES   REMARKS
SWIFT CURRENT  SUNNY     77  57  50 SE10G24   29.89F HAZE
REGINA         LGT RAIN  68  59  73 E5        29.93S SMOKE
SASKATOON        N/A     68  54  60 W8        29.96F SMOKE
CYPRESS HILLS    N/A     72  54  53 NW12G22     N/A
VAL MARIE        N/A     86  46  25 NW13G20     N/A
ASSINIBOIA       N/A     70  59  68 W3          N/A
$$



USA.gov is the U.S. government's official web portal to all federal, state and local government web resources and services.